Location: Oshawa
(43.9000°N, 78.8670°W)
Time: 05:42:59
(UTC-04:00)

Cosmos 839 Rocket - Visible Passes

Search period start: 31 July 2016 00:00
Search period end: 10 August 2016 00:00
Orbit: 959 x 2094 km, 65.9° (Epoch: 29 July)

Date Brightness Start Highest point End Pass type
(mag) Time Alt. Az. Time Alt. Az. Time Alt. Az.
31 Jul 6.0 01:14:23 10° WSW 01:26:13 54° NW 01:36:35 10° NNE visible
31 Jul 7.0 03:20:42 10° WNW 03:29:31 24° NNW 03:37:13 10° NNE visible
31 Jul 7.2 05:27:07 10° NW 05:34:22 21° N 05:40:35 10° ENE visible
31 Jul 5.8 22:33:21 13° S 22:43:34 43° ESE 22:53:46 10° NE visible
01 Aug 5.7 00:31:41 10° SW 00:43:53 68° NW 00:54:36 10° NNE visible
01 Aug 6.8 02:36:52 10° W 02:46:33 29° NNW 02:54:58 10° NNE visible
01 Aug 7.2 04:44:04 10° NW 04:51:14 20° N 04:57:28 10° NE visible
01 Aug 6.1 21:52:01 10° SSE 22:01:57 31° ESE 22:11:12 10° NE visible
01 Aug 5.5 23:49:21 10° SSW 00:01:41 86° WNW 00:12:36 10° NNE visible
02 Aug 6.6 01:53:12 10° W 02:03:44 35° NW 02:12:53 10° NNE visible
02 Aug 7.2 04:00:38 10° NW 04:08:03 20° N 04:14:32 10° NE visible
02 Aug 6.4 21:12:23 10° SE 21:20:29 21° E 21:28:09 10° NE visible
02 Aug 5.4 23:07:26 10° SSW 23:19:38 75° ESE 23:30:33 10° NE visible
03 Aug 6.3 01:09:49 10° WSW 01:21:05 43° NW 01:30:52 10° NNE visible
03 Aug 7.1 03:16:55 10° WNW 03:24:54 22° NNW 03:31:53 10° NNE visible
03 Aug 7.1 05:22:12 10° NNW 05:29:41 23° NNE 05:36:00 10° ENE visible
03 Aug 5.6 22:25:56 10° S 22:37:44 57° ESE 22:48:23 10° NE visible
04 Aug 6.0 00:26:45 10° WSW 00:38:35 54° NW 00:48:53 10° NNE visible
04 Aug 7.0 02:33:03 10° WNW 02:41:49 24° NNW 02:49:28 10° NNE visible
04 Aug 7.2 04:39:30 10° NW 04:46:38 21° N 04:52:46 10° NE visible
04 Aug 5.8 21:44:55 10° S 21:55:58 42° ESE 22:06:04 10° NE visible
04 Aug 5.7 23:44:03 10° SW 23:56:15 69° NW 00:06:54 10° NNE visible
05 Aug 6.9 01:49:13 10° W 01:58:52 29° NNW 02:07:15 10° NNE visible
05 Aug 7.2 03:56:27 10° NW 04:03:30 20° N 04:09:39 10° NE visible
05 Aug 6.1 21:04:30 10° SSE 21:14:21 30° ESE 21:23:29 10° NE visible
05 Aug 5.5 23:01:45 10° SSW 23:14:05 87° WNW 23:24:55 10° NNE visible
06 Aug 6.6 01:05:34 10° W 01:16:03 35° NW 01:25:09 10° NNE visible
06 Aug 7.2 03:13:00 10° NW 03:20:21 20° N 03:26:45 10° NE visible
06 Aug 6.9 05:17:01 10° NNW 05:24:52 27° NNE 05:31:21 10° E visible
06 Aug 5.4 22:19:50 10° SSW 22:32:02 74° ESE 22:42:51 10° NE visible
07 Aug 6.4 00:22:10 10° WSW 00:33:25 43° NW 00:43:09 10° NNE visible
07 Aug 7.2 02:29:17 10° WNW 02:37:11 21° NNW 02:44:06 10° NNE visible
07 Aug 7.1 04:34:36 10° NNW 04:41:57 23° NNE 04:48:10 10° ENE visible
07 Aug 5.6 21:38:21 10° S 21:50:07 56° ESE 22:00:42 10° NE visible
07 Aug 6.1 23:39:07 10° WSW 23:50:57 55° NW 00:01:11 10° NNE visible
08 Aug 7.1 01:45:24 10° WNW 01:54:08 24° NNW 02:01:43 10° NNE visible
08 Aug 7.2 03:51:54 10° NW 03:58:55 20° N 04:04:57 10° NE visible
08 Aug 5.8 20:57:21 10° S 21:08:21 42° ESE 21:18:22 10° NE visible
08 Aug 5.7 22:56:26 10° SW 23:08:37 69° NW 23:19:12 10° NNE visible
09 Aug 6.9 01:01:34 10° W 01:11:11 29° NNW 01:19:31 10° NNE visible
09 Aug 7.3 03:08:50 10° NW 03:15:47 19° N 03:21:50 10° NE visible
09 Aug 6.6 05:11:40 10° NNW 05:19:53 32° NNE 05:26:34 10° E visible
09 Aug 5.5 22:14:08 10° SSW 22:26:27 87° WNW 22:37:13 10° NNE visible
